Dewpoint
67 69 71 74 75 76 76 76 75 75 75 75 74 73 73 73 73 73 73 72 72 72 72 72 73 73 72 72 72 72 72 72 72 72 72 72 72 72 71 71 71 71 71 71 71 71 71 71 71 70 70 70 70 71 71 71 71 71 71 70 71 70 70 70 71 70 70 69 69 69 68 67 67 67 67 66 67 66 66 66 65 61 61 62 64
67 69 72 73 75 76 76 75 75 75 75 74 74 74 73 73 73 73 72 72 72 72 72 72 72 73 73 72 72 72 72 72 72 72 72 72 71 71 71 71 71 70 70 70 71 71 71 71 71 70 70 69 70 70 70 70 70 70 70 70 70 70 70 70 69 69 70 69 69 68 68 67 66 65 65 65 65 65 65 65 64 61 61 63 63
67 70 72 73 75 76 76 75 75 75 74 74 74 73 73 73 73 73 72 72 72 72 72 72 73 73 73 72 72 72 72 72 72 71 71 71 71 71 70 70 70 70 70 70 70 70 71 71 71 71 70 70 70 70 70 70 70 70 69 70 70 70 70 70 69 69 69 68 68 68 68 67 66 66 65 65 65 65 64 64 63 62 58 62 62
68 69 71 74 75 75 75 75 75 74 74 74 74 73 73 73 73 73 72 72 72 72 72 72 73 73 72 72 72 72 72 71 71 71 71 71 71 71 70 70 70 70 70 70 70 70 70 71 71 71 70 70 70 70 70 70 70 70 70 70 70 70 70 69 69 68 68 68 67 66 65 62 64 65 65 65 65 64 63 62 62 62 61 61 61
67 69 72 72 73 75 75 75 74 74 74 74 73 73 73 73 73 73 72 72 72 72 72 73 73 72 72 72 72 71 72 71 71 70 70 70 70 70 70 70 70 70 70 70 70 70 71 71 71 70 70 70 69 69 69 70 70 70 70 69 69 69 70 70 68 68 68 67 66 64 61 60 61 63 64 63 63 63 62 61 65 63 63 61 62
66 70 70 69 71 74 75 75 74 74 74 73 73 73 73 73 73 72 72 72 72 72 72 73 72 72 72 72 71 71 71 71 71 70 70 70 70 70 70 70 70 70 69 70 70 70 70 71 71 70 70 70 70 69 68 69 69 70 69 69 69 69 69 70 70 69 68 67 68 63 60 59 59 60 63 62 61 61 62 63 62 63 63 65 66
68 69 68 68 70 74 75 74 74 74 73 73 73 73 73 73 73 72 72 72 72 72 72 72 72 72 72 71 71 71 71 71 70 70 70 70 70 70 69 69 70 70 69 70 70 70 71 71 71 70 70 70 70 69 69 69 69 69 69 69 68 68 68 68 67 69 68 65 67 60 60 59 57 58 61 62 65 63 62 62 62 62 66 66 66
66 67 67 66 70 74 75 74 74 73 73 73 73 73 73 72 72 72 72 71 72 72 72 72 72 72 72 71 71 71 71 71 70 70 70 70 70 70 69 69 69 69 70 70 70 70 70 71 70 70 70 70 69 69 69 69 69 69 69 69 69 69 69 68 69 68 67 66 58 57 57 59 57 57 63 63 63 63 63 63 65 66 65 65 65
64 64 65 66 71 74 74 74 74 73 73 73 73 73 73 72 72 71 71 72 72 72 72 72 72 72 72 71 71 71 71 70 70 70 70 70 70 71 70 69 69 69 70 69 70 70 71 70 70 70 70 70 69 69 69 69 69 69 69 68 68 68 68 68 69 67 67 59 57 57 57 58 62 63 65 64 63 62 62 63 63 64 65 65 65
63 63 65 67 71 74 74 74 74 73 73 73 73 73 72 72 72 72 72 72 72 72 72 72 72 72 71 71 71 71 70 70 70 70 70 70 70 70 70 70 69 69 70 70 70 71 70 70 70 70 70 70 69 69 69 68 68 68 68 67 67 67 68 68 69 71 57 58 57 57 60 63 59 61 63 64 63 63 62 63 63 62 64 65 64
62 64 66 67 70 74 74 74 73 73 73 72 72 72 72 72 72 72 72 72 72 72 72 72 72 72 72 71 71 71 70 70 70 70 70 70 70 70 69 70 69 69 70 70 71 71 71 70 70 70 69 69 68 68 68 68 67 67 67 67 68 68 70 70 71 58 56 54 56 57 60 63 59 60 63 63 63 61 60 64 64 64 63 62 61
61 64 66 67 74 74 74 73 73 73 73 72 72 72 72 72 72 72 72 72 72 73 72 72 72 72 72 72 71 71 70 70 70 70 70 70 70 69 69 70 70 70 71 71 71 71 70 69 68 68 68 68 68 67 67 67 67 67 67 67 68 69 70 71 60 55 54 56 61 60 57 57 58 59 60 60 61 60 60 62 61 63 63 63 62
61 63 66 70 71 74 74 73 73 73 73 72 72 72 72 72 72 72 72 72 72 72 72 72 72 72 72 72 71 71 70 70 70 70 70 70 70 70 70 71 71 71 71 71 70 70 70 68 68 67 67 68 68 67 66 66 67 67 67 66 68 68 70 64 56 57 58 59 59 59 60 61 61 62 59 58 62 61 60 61 61 62 61 61 61
62 64 69 70 70 74 74 73 73 73 73 72 72 72 72 72 72 72 72 72 72 72 72 72 72 72 72 72 71 71 70 70 70 70 70 71 71 71 71 72 72 72 71 71 70 70 69 69 69 69 68 67 67 66 66 66 66 66 66 66 67 68 69 63 61 57 58 58 60 60 60 62 62 63 63 64 64 64 63 63 62 62 62 61 60
61 67 68 67 70 72 74 73 73 73 72 72 72 72 73 73 73 73 73 73 73 73 72 73 72 72 72 72 72 71 71 71 71 71 71 71 71 71 72 72 72 71 71 71 71 70 69 69 69 68 67 67 66 66 65 65 65 65 65 67 67 67 68 60 55 56 57 58 58 58 59 60 62 64 64 64 64 64 63 63 63 62 61 60 59
63 68 68 68 68 70 71 73 73 73 73 72 72 72 73 73 73 73 73 73 73 72 72 72 72 72 72 72 72 71 71 71 71 71 71 71 71 72 72 72 72 71 71 71 71 70 68 68 68 67 67 66 66 65 65 64 64 65 65 66 68 69 70 60 54 54 55 55 57 61 60 61 64 64 65 64 63 62 60 59 60 60 59 58 57
67 68 67 66 67 68 69 70 72 72 72 72 72 73 73 73 73 73 73 73 72 72 72 72 72 72 72 72 72 71 71 71 71 71 71 71 71 72 72 72 72 71 71 70 70 69 68 67 67 67 66 65 65 65 64 64 64 65 66 69 67 66 66 62 55 55 55 57 57 58 58 61 63 63 62 61 61 61 60 58 60 60 60 61 60
69 69 66 65 66 65 69 69 70 71 71 72 73 73 73 73 73 73 72 72 72 72 72 72 72 72 72 72 72 72 71 71 71 71 71 71 72 72 72 72 72 71 71 70 69 69 68 67 67 66 66 65 65 65 65 65 65 66 67 66 65 65 65 63 56 56 57 59 57 59 60 63 62 61 60 58 58 60 59 60 60 59 59 60 59
69 70 66 65 64 65 65 68 69 68 70 71 71 73 73 73 73 72 72 72 72 72 71 71 72 71 71 71 72 71 71 71 71 71 71 71 71 72 72 72 71 71 71 70 70 69 68 67 66 66 66 65 65 65 65 66 66 67 68 68 66 65 64 61 56 55 57 58 58 59 61 62 61 60 58 62 61 60 61 60 60 60 59 59 59
68 69 64 64 64 64 65 67 67 67 68 69 70 71 72 73 73 72 72 72 71 71 71 71 72 71 71 71 71 71 70 70 71 70 71 71 71 71 72 72 71 71 70 70 69 68 68 67 66 65 65 65 65 65 65 65 66 66 67 67 67 65 61 55 53 55 56 58 59 59 60 61 60 60 60 62 62 62 61 61 60 60 59 60 60
68 67 63 60 64 64 65 64 64 65 67 69 69 71 71 72 72 71 71 71 71 70 70 70 70 70 70 70 70 69 70 70 69 69 71 70 70 71 72 71 72 71 70 70 69 69 68 67 66 66 66 65 65 65 64 64 64 64 65 65 67 62 60 57 57 58 57 57 57 56 61 62 62 62 62 62 62 61 61 61 61 61 61 60 59
65 67 68 56 59 64 64 64 65 65 66 67 68 70 70 70 69 70 70 70 70 70 69 68 70 69 70 69 69 68 69 69 69 70 69 69 70 71 71 71 71 71 70 70 69 68 68 67 67 66 66 65 65 63 64 65 65 65 65 66 65 62 58 57 58 57 58 58 58 59 61 61 62 62 61 59 59 59 59 59 59 59 59 59 58
65 66 66 67 59 61 61 62 64 64 65 65 66 69 69 68 68 68 68 69 69 69 68 68 68 67 68 68 68 68 67 68 68 69 69 70 70 71 71 71 71 70 70 70 70 69 68 67 67 66 66 66 65 62 62 62 64 66 66 66 65 63 60 56 55 56 58 59 59 60 61 62 62 61 59 59 58 59 60 60 59 59 59 58 58
65 66 66 67 69 66 59 61 62 64 65 65 67 69 68 67 68 67 67 68 69 68 68 68 67 67 67 68 68 68 67 69 69 70 70 69 70 71 71 71 70 70 70 70 70 69 68 68 67 67 66 65 65 68 65 60 62 67 63 63 63 61 59 57 55 55 58 59 58 62 62 63 61 59 59 60 59 59 58 59 58 58 58 58 57
66 67 65 66 66 67 68 67 62 64 63 65 67 67 67 66 66 66 67 67 68 68 67 67 68 67 65 68 67 68 67 68 69 69 68 68 69 69 70 69 69 69 70 68 67 67 67 66 66 67 65 64 64 67 63 61 62 61 63 62 62 62 59 58 57 56 57 59 61 62 62 62 61 59 59 59 59 58 59 58 57 56 56 56 57
64 65 65 66 68 68 68 68 66 64 63 65 65 66 67 66 66 66 67 67 67 66 65 66 67 68 68 69 67 68 68 68 69 69 68 68 67 67 68 68 68 69 70 66 65 65 65 64 65 65 66 67 66 65 63 63 62 63 61 63 63 63 60 58 58 58 58 59 59 60 60 60 59 59 58 58 59 59 58 58 59 58 58 57 57
65 65 66 66 67 69 70 68 69 65 63 64 64 65 65 66 66 66 66 66 65 65 64 65 66 67 68 68 68 68 68 67 68 69 68 68 67 67 66 67 67 67 68 66 64 64 66 65 65 66 66 65 63 62 63 63 60 59 60 61 62 63 61 59 58 58 59 59 60 60 60 60 60 60 59 59 60 60 59 59 58 58 57 57 56
65 65 66 67 67 68 69 69 69 70 70 64 64 63 64 64 66 67 66 64 64 64 63 66 66 67 67 68 69 68 67 67 68 68 68 68 67 67 67 67 66 67 67 66 65 66 66 67 66 63 62 60 59 60 61 63 62 62 62 62 62 63 61 59 60 59 59 59 60 60 60 60 60 60 60 60 60 59 59 59 59 58 57 57 56
64 66 66 66 67 69 70 68 67 66 69 63 63 62 63 62 64 65 64 63 64 63 65 67 65 65 68 68 68 67 66 67 68 68 68 68 68 68 68 67 67 66 67 70 66 67 67 66 65 62 62 62 63 63 61 62 67 63 62 61 61 62 62 61 60 60 59 59 59 60 61 60 60 60 60 60 59 58 59 59 58 56 56 56 55
65 65 65 66 68 69 69 69 67 66 65 66 62 62 62 62 62 63 64 63 64 64 66 66 66 65 67 67 67 68 67 67 68 68 67 69 69 70 70 67 68 69 68 67 67 66 65 65 65 62 59 62 62 63 63 63 64 64 62 61 62 61 63 63 60 60 60 60 60 61 61 60 59 60 60 59 58 59 59 59 58 56 56 57 56
65 65 65 66 67 67 68 69 68 68 69 68 63 63 63 62 61 62 64 62 64 66 65 66 65 66 66 68 66 67 67 66 67 66 67 67 68 67 68 67 68 68 69 70 70 67 67 68 68 66 64 62 63 64 64 63 64 64 63 62 62 62 62 63 62 60 59 59 59 60 59 60 60 60 60 59 57 59 59 57 56 56 57 57 56
65 65 65 66 66 66 68 69 67 68 68 65 66 64 63 61 62 61 61 62 66 66 63 65 64 66 66 67 68 68 68 67 66 65 66 66 66 66 67 67 66 68 68 68 69 67 68 64 64 69 67 65 65 64 64 64 63 62 63 62 62 62 62 62 61 60 60 60 60 59 60 60 61 61 60 59 57 57 56 56 55 55 59 57 56
65 66 66 66 65 66 67 68 68 69 67 65 66 69 65 62 62 61 61 63 64 65 63 64 66 66 68 67 70 68 68 67 70 66 66 66 67 68 67 67 67 67 68 66 65 69 68 70 69 67 68 67 67 67 63 65 63 64 64 63 64 62 62 61 61 61 60 61 60 60 59 60 59 61 61 59 58 58 58 57 56 56 55 56 56
64 67 67 66 68 67 68 68 68 68 68 69 67 68 67 69 63 64 63 65 63 65 65 64 66 66 66 70 69 70 70 67 68 68 66 67 68 67 67 68 68 67 68 71 69 70 69 68 68 70 68 67 65 66 67 65 63 64 65 63 63 63 63 62 62 62 61 61 61 60 59 59 60 60 59 60 59 59 59 58 58 57 57 56 55
65 67 66 67 67 67 68 68 69 69 70 70 69 69 72 70 70 73 61 66 63 63 65 65 65 66 65 69 70 70 70 68 70 67 67 66 67 68 67 67 68 69 68 70 69 70 68 66 66 66 68 71 63 63 63 65 64 61 62 64 63 64 66 62 62 61 61 62 62 61 61 60 60 60 59 59 60 59 59 59 59 59 58 57 56
66 67 67 67 68 68 68 68 69 69 70 68 70 71 70 69 71 72 68 70 62 62 65 64 63 65 65 68 68 68 71 67 70 68 69 65 66 67 67 68 68 69 68 69 67 66 66 67 66 68 66 63 62 65 67 65 62 62 64 67 66 64 64 63 64 62 62 61 61 62 62 61 61 61 61 59 59 59 60 60 59 59 59 58 57
66 67 67 67 68 68 68 68 68 68 66 67 68 66 68 67 66 67 71 69 68 69 61 63 64 66 66 66 68 67 70 65 68 69 71 64 63 65 66 68 68 69 70 70 69 66 65 60 67 66 67 66 62 60 62 64 66 63 64 64 66 66 67 65 64 64 63 63 62 61 61 62 62 64 62 60 59 58 60 60 60 59 59 59 57
66 67 66 66 66 66 68 68 68 68 67 68 68 66 67 67 67 68 69 70 69 67 66 62 63 65 66 66 67 67 69 65 67 68 70 68 61 63 66 67 65 69 69 68 66 67 67 65 67 67 65 64 62 61 62 61 63 64 65 65 66 66 67 66 65 65 63 61 62 61 60 61 61 61 60 61 59 59 58 60 61 60 59 59 58
65 66 66 66 67 68 68 68 67 68 67 68 68 66 66 67 67 68 68 69 69 68 67 63 62 63 65 67 67 67 68 66 66 67 68 69 65 63 66 65 65 68 68 67 66 66 66 67 67 67 69 66 64 64 63 66 65 64 64 66 66 67 67 67 66 65 64 63 61 61 61 63 62 61 62 61 62 59 59 59 58 58 57 60 60
66 66 66 66 67 67 66 67 68 68 67 66 65 66 66 67 67 68 68 68 70 68 66 64 64 63 63 66 67 68 67 68 67 67 69 68 70 67 67 65 65 66 67 65 64 63 67 65 67 66 66 65 64 63 66 64 65 66 65 66 66 67 67 67 66 66 65 65 64 62 61 62 62 61 61 60 62 61 59 59 60 58 57 59 62
65 66 66 66 65 65 64 64 66 67 65 65 65 66 65 66 67 67 67 67 68 69 67 65 63 63 61 65 66 66 66 68 68 68 68 68 69 71 68 66 66 64 66 66 66 64 66 67 66 67 66 65 64 62 65 62 63 64 65 66 66 67 67 67 66 66 65 65 66 65 64 62 62 62 61 61 62 62 60 59 59 58 58 57 60
64 65 65 66 66 66 65 65 66 66 66 65 66 66 66 67 67 66 66 69 67 67 67 66 65 64 66 67 68 66 66 68 68 68 68 67 67 70 68 67 67 65 68 66 67 66 67 66 66 65 66 64 63 61 62 63 63 61 63 63 64 66 67 66 66 65 66 65 65 65 65 64 61 62 63 63 61 61 60 60 59 59 58 58 58
64 64 64 63 63 65 66 65 66 66 66 65 66 65 66 67 66 65 66 67 68 68 68 68 67 66 69 68 68 67 67 67 67 68 67 67 67 69 68 68 66 66 67 66 66 65 67 67 66 66 64 63 64 65 63 64 61 61 62 62 61 62 64 65 66 66 65 65 65 64 66 63 61 63 63 62 62 62 61 61 61 61 62 58 58
64 63 63 62 63 64 65 65 65 66 65 65 65 66 66 67 67 68 67 67 66 68 67 68 68 68 67 67 68 68 66 66 65 66 66 67 67 68 68 69 67 66 67 66 66 65 66 68 67 66 66 64 58 61 62 65 61 61 59 59 61 61 59 62 63 65 65 66 65 64 64 64 63 64 63 62 61 62 62 62 61 61 62 59 58
62 62 62 62 63 63 65 65 65 66 65 65 67 66 66 66 67 67 67 67 67 66 66 66 66 66 66 67 67 68 66 66 65 65 64 67 67 66 66 67 69 67 67 66 66 66 63 65 67 67 66 65 64 62 63 63 65 64 63 60 60 59 57 61 63 66 65 65 64 63 63 64 64 65 65 64 63 62 62 62 62 62 63 60 59
63 63 63 62 62 64 65 66 66 66 66 66 66 66 66 66 65 65 64 65 64 64 63 64 64 64 64 66 66 66 66 66 65 65 64 66 67 66 67 66 68 69 68 67 67 67 66 64 65 67 67 68 66 66 63 63 64 65 65 64 63 61 62 62 59 59 65 65 64 63 62 64 64 65 65 64 63 64 63 63 63 63 63 62 60
62 63 64 63 63 64 65 65 65 65 66 66 66 66 66 66 65 65 64 64 64 65 66 67 65 65 67 67 66 67 65 66 65 64 65 66 67 67 68 68 67 69 69 69 68 67 65 63 64 66 67 68 68 64 64 66 66 67 65 64 63 63 60 61 61 62 60 63 64 64 62 62 62 63 63 63 63 63 64 63 63 62 63 63 62
62 63 63 64 64 64 65 65 66 66 66 65 66 67 66 66 65 65 64 64 63 63 64 64 66 66 67 67 67 67 65 64 66 63 63 65 67 67 67 67 67 67 67 67 67 67 67 65 68 68 69 68 67 65 64 65 66 66 66 66 65 64 61 62 63 59 60 59 61 63 64 63 63 62 62 62 62 62 65 64 63 62 62 62 62
60 62 62 62 64 63 64 64 64 65 66 66 66 66 66 65 65 65 64 64 64 64 64 65 65 65 66 67 66 64 64 64 63 64 63 62 65 67 66 66 67 65 65 65 66 66 66 67 67 68 69 69 69 69 67 65 65 64 66 66 65 64 64 64 63 63 60 59 58 60 61 62 64 64 64 63 63 63 64 64 62 62 62 63 62
60 62 62 62 63 64 64 64 64 65 65 65 67 65 65 65 64 64 64 64 64 65 67 65 65 66 66 67 67 66 65 66 65 64 63 62 63 65 66 65 66 65 64 63 65 65 66 67 69 69 69 68 70 69 67 65 66 67 64 65 64 64 64 63 63 62 61 61 59 58 59 61 61 62 64 64 63 62 63 64 64 63 62 62 62
60 61 62 63 62 63 64 63 64 65 65 65 65 65 65 64 64 64 64 64 64 66 67 66 67 67 66 66 68 68 69 68 69 68 67 65 64 64 65 65 66 67 66 64 65 65 65 68 69 70 69 68 70 68 66 66 67 66 66 65 64 64 64 62 62 63 62 62 61 59 59 58 61 61 63 63 63 62 62 63 63 63 63 62 62